Location: St. Louis
(38.6270°N, 90.1994°W)
Time: 20:35:53
(UTC-06:00)

Vanguard 3 - Pass Details

Date: 05 December 2021
Orbit: 508 x 3260 km, 33.3° (Epoch: 19 January)

Event Time Altitude Azimuth Distance (km) Brightness Sun altitude
Exits shadow 01:21:32 32° 119° (ESE) 4,581 10.8 -64.8°
Drops below altitude 10° 01:33:10 10° 85° (E) 5,971 11.8 -62.9°
Sets 01:38:00 0° 78° (ENE) 6,765 12.2 -62.1°
